Location: Hickory_CSC
(35.7330°N, 81.3330°W)
Time: 23:05:52
(UTC-05:00)

ISS - All Passes

Search period start: 18 February 2018 00:00
Search period end: 28 February 2018 00:00
Orbit: 403 x 407 km, 51.6° (Epoch: 19 February)

Date Brightness Start Highest point End Pass type
(mag) Time Alt. Az. Time Alt. Az. Time Alt. Az.
18 Feb - 08:41:13 10° S 08:44:00 26° SE 08:46:47 10° ENE daylight
18 Feb - 10:17:36 10° W 10:20:25 26° NW 10:23:15 10° NNE daylight
18 Feb - 15:11:50 10° N 15:13:37 14° NNE 15:15:24 10° ENE daylight
18 Feb - 16:47:11 10° NW 16:50:27 79° SW 16:53:42 10° SE daylight
19 Feb - 07:50:28 10° SSE 07:51:59 13° SE 07:53:31 10° E daylight
19 Feb - 09:24:58 10° WSW 09:28:08 49° NW 09:31:20 10° NE daylight
19 Feb - 15:55:04 10° NW 15:58:14 47° NE 16:01:25 10° ESE daylight
19 Feb - 17:32:48 10° W 17:34:24 13° SW 17:35:59 10° SSW daylight
20 Feb - 08:32:40 10° SW 08:35:55 77° SE 08:39:11 10° NE daylight
20 Feb - 10:10:55 10° WNW 10:12:45 14° NNW 10:14:35 10° N daylight
20 Feb - 15:03:08 10° NNW 15:05:56 26° NNE 15:08:44 10° E daylight
20 Feb - 16:39:34 10° WNW 16:42:23 26° SW 16:45:10 10° S daylight
21 Feb - 07:40:47 10° SSW 07:43:47 34° SE 07:46:47 10° ENE daylight
21 Feb - 09:17:41 10° W 09:20:18 22° NNW 09:22:56 10° NNE daylight
21 Feb - 14:11:23 10° NNW 14:13:32 16° NNE 14:15:39 10° ENE daylight
21 Feb - 15:47:02 10° NW 15:50:15 59° SW 15:53:28 10° SE daylight
22 Feb - 06:49:34 10° S 06:51:43 16° SE 06:53:52 10° E daylight
22 Feb - 08:24:52 10° WSW 08:27:57 38° NW 08:31:03 10° NE daylight
22 Feb - 13:20:09 10° N 13:21:01 11° NNE 13:21:52 10° NE daylight
22 Feb - 14:54:48 10° NW 14:58:03 62° NE 15:01:15 10° ESE daylight
23 Feb - 07:32:24 10° SW 07:35:40 80° NW 07:38:56 10° NE daylight
23 Feb - 09:11:11 10° NW 09:12:36 12° NNW 09:14:01 10° N daylight
23 Feb - 14:02:45 10° NNW 14:05:44 31° NE 14:08:41 10° E daylight
23 Feb - 15:39:32 10° W 15:42:03 21° SW 15:44:34 10° S daylight
24 Feb - 06:40:20 10° SSW 06:43:28 45° SE 06:46:36 10° ENE daylight
24 Feb - 08:17:42 10° WNW 08:20:06 18° NNW 08:22:30 10° NNE daylight
24 Feb - 13:10:54 10° NNW 13:13:18 19° NNE 13:15:42 10° ENE daylight
24 Feb - 14:46:48 10° WNW 14:49:56 43° SW 14:53:02 10° SSE daylight
25 Feb - 05:48:47 10° S 05:51:19 21° SE 05:53:53 10° ENE visible
25 Feb - 07:24:42 10° W 07:27:40 31° NW 07:30:38 10° NNE daylight
25 Feb - 12:19:20 10° N 12:20:47 12° NNE 12:22:14 10° NE daylight
25 Feb - 13:54:26 10° NW 13:57:43 82° NE 14:00:57 10° SE daylight
26 Feb - 04:58:49 10° SE 04:59:15 10° SE 04:59:41 10° ESE visible
26 Feb - 06:32:05 10° WSW 06:35:19 61° NW 06:38:33 10° NE visible
26 Feb - 08:11:32 10° NW 08:12:20 11° NNW 08:13:09 10° N daylight
26 Feb - 13:02:18 10° NW 13:05:24 39° NE 13:08:28 10° ESE daylight
26 Feb - 14:39:31 10° W 14:41:37 16° SW 14:43:42 10° SSW daylight
27 Feb - 05:39:49 10° SW 05:43:02 60° SE 05:46:17 10° NE visible
27 Feb - 07:17:39 10° WNW 07:19:46 16° NNW 07:21:53 10° NNE daylight
27 Feb - 12:10:19 10° NNW 12:12:58 22° NNE 12:15:36 10° E daylight
27 Feb - 13:46:30 10° WNW 13:49:29 33° SW 13:52:26 10° SSE daylight
